Ketchikan, AK

4:51 PM AKDT on September 24, 2018 (GMT -0800)
Ketchikan International

Weather History for PAKT - July, 2018

Change the Weather History Date:

Sunday, July 15, 2018

  Actual Average Record
Temperature  
Mean Temperature 58 °F -  
Max Temperature 62 °F 63 °F 78 °F (1958)
Min Temperature 55 °F 49 °F 44 °F (1983)
Degree Days  
Heating Degree Days 6    
Growing Degree Days 8 (Base 50)    
Moisture  
Dew Point 51 °F    
Average Humidity 77    
Maximum Humidity 90    
Minimum Humidity 68    
Precipitation  
Precipitation 0.00 in - - ()
Sea Level Pressure  
Sea Level Pressure 30.16 in    
Wind  
Wind Speed 8 mph (SE)    
Max Wind Speed 14 mph    
Max Gust Speed -    
Visibility 10 miles    
Events Rain    
Averages and records for this station are not official NWS values.
T = Trace of Precipitation, MM = Missing Value Source: NWS Daily Summary

Daily Weather History Graph

Daily Weather History Graph

Search for Another Location

Airport or City:

Astronomy

Jul. 15, 2018 Rise Set
Actual Time 4:26 AM AKDT 9:18 PM AKDT
Civil Twilight 3:32 AM AKDT 10:11 PM AKDT
Nautical Twilight 1:55 AM AKDT 11:46 PM AKDT
Astronomical Twilight Sun does not set Sun does not set
Moon 7:58 AM AKDT (7/15) 10:58 PM AKDT (7/15)
Length of Visible Light 18h 39m
Length of Day
16h 52m
Waxing Crescent, 11% of the Moon is Illuminated
Jul 15
Waxing Crescent
Jul 19
First Quarter
Jul 27
Full
Aug 4
Last Quarter
Aug 11
New

Hourly Weather History & Observations

Time (AKDT) Temp. Dew Point Humidity Pressure Visibility Wind Dir Wind Speed Gust Speed Precip Events Conditions
12:53 AM 59.0 °F 50.0 °F 72% 30.18 in 10.0 mi NNW 9.2 mph - N/A   Mostly Cloudy
1:53 AM 59.0 °F 50.0 °F 72% 30.17 in 10.0 mi NNW 6.9 mph - N/A   Overcast
2:53 AM 57.9 °F 51.1 °F 78% 30.16 in 10.0 mi NNW 9.2 mph - N/A   Scattered Clouds
3:53 AM 57.9 °F 50.0 °F 75% 30.15 in 10.0 mi NW 4.6 mph - N/A   Overcast
4:53 AM 55.9 °F 50.0 °F 80% 30.14 in 10.0 mi SSW 3.5 mph - N/A   Clear
5:53 AM 57.0 °F 50.0 °F 77% 30.14 in 10.0 mi Calm Calm - N/A   Overcast
5:59 AM 57.2 °F 50.0 °F 77% 30.14 in 10.0 mi SE 3.5 mph - N/A   Overcast
6:53 AM 59.0 °F 51.8 °F 77% 30.14 in 10.0 mi SE 4.6 mph - N/A   Overcast
7:53 AM 59.0 °F 51.8 °F 77% 30.15 in 10.0 mi SE 9.2 mph - N/A   Overcast
8:53 AM 60.1 °F 51.1 °F 72% 30.15 in 10.0 mi SE 8.1 mph - N/A   Overcast
9:53 AM 60.1 °F 51.1 °F 72% 30.14 in 10.0 mi SE 9.2 mph - N/A   Overcast
10:53 AM 60.8 °F 51.8 °F 72% 30.15 in 10.0 mi ESE 10.4 mph - N/A   Overcast
11:53 AM 60.8 °F 51.8 °F 72% 30.16 in 10.0 mi SE 8.1 mph - N/A   Overcast
12:53 PM 60.8 °F 53.6 °F 77% 30.17 in 10.0 mi ESE 11.5 mph - N/A Rain Light Rain
1:53 PM 60.8 °F 53.6 °F 77% 30.17 in 10.0 mi ESE 11.5 mph - N/A Rain Light Rain
2:53 PM 60.8 °F 51.8 °F 72% 30.19 in 10.0 mi SE 8.1 mph - N/A   Overcast
3:53 PM 60.8 °F 51.8 °F 72% 30.17 in 10.0 mi SE 10.4 mph - N/A   Overcast
4:53 PM 62.6 °F 51.8 °F 68% 30.16 in 10.0 mi SE 10.4 mph - N/A   Overcast
5:53 PM 60.8 °F 51.8 °F 72% 30.17 in 10.0 mi ESE 12.7 mph - N/A   Overcast
6:53 PM 60.8 °F 51.8 °F 72% 30.16 in 10.0 mi SE 11.5 mph - N/A   Mostly Cloudy
7:53 PM 59.0 °F 50.0 °F 72% 30.16 in 10.0 mi SE 10.4 mph - N/A   Overcast
8:53 PM 57.9 °F 51.1 °F 78% 30.16 in 10.0 mi SE 8.1 mph - N/A   Overcast
9:53 PM 57.9 °F 51.1 °F 78% 30.16 in 10.0 mi SE 11.5 mph - N/A   Overcast
10:17 PM 57.9 °F 51.1 °F 78% 30.15 in 10.0 mi SE 10.4 mph - N/A   Overcast
10:29 PM 57.9 °F 51.1 °F 78% 30.16 in 10.0 mi SE 10.4 mph - N/A   Overcast
10:39 PM 57.9 °F 51.1 °F 78% 30.16 in 10.0 mi SE 9.2 mph - N/A   Overcast
10:53 PM 57.9 °F 51.1 °F 78% 30.17 in 10.0 mi SE 11.5 mph - N/A   Overcast
11:19 PM 57.0 °F 53.1 °F 87% 30.15 in 8.0 mi ESE 13.8 mph - N/A   Overcast
11:35 PM 55.9 °F 53.1 °F 90% 30.15 in 6.0 mi SE 9.2 mph - N/A   Overcast
11:45 PM 55.9 °F 53.1 °F 90% 30.15 in 6.0 mi SE 11.5 mph - N/A   Overcast
11:53 PM 55.9 °F 53.1 °F 90% 30.15 in 7.0 mi ESE 12.7 mph - N/A   Overcast